Location: *
(51.0333°S, 178.4667°E)
Time: 21:37:59
(UTC+00:00)

Cosmos 1980 - Pass Details

Date: 15 November 2019
Orbit: 839 x 847 km, 71.0° (Epoch: 08 December)

Event Time Altitude Azimuth Distance (km) Brightness Sun altitude
Rises 08:18:44 0° 213° (SSW) 3,445 8.6 -6.5°
Reaches altitude 10° 08:21:14 10° 216° (SW) 2,502 7.8 -6.8°
Maximum altitude 08:26:50 56° 292° (WNW) 1,013 4.3 -7.5°
Drops below altitude 10° 08:32:22 10° 9° (N) 2,469 5.7 -8.1°
Enters shadow 08:33:50 - 11° (NNE) 3,014 6.1 -8.3°
